Tallahassee, FL

1:52 PM EST on February 10, 2016 (GMT -0500)
Tallahassee Regional

Weather History for KTLH - March, 2014

Change the Weather History Date:

Tuesday, March 4, 2014

  Actual Average Record
Temperature  
Mean Temperature 51 °F 58 °F  
Max Temperature 56 °F 71 °F 83 °F (1992)
Min Temperature 46 °F 45 °F 21 °F (1980)
Degree Days  
Heating Degree Days 14    
Month to date heating degree days 31  
Since 1 July heating degree days 1174  
Cooling Degree Days 0    
Month to date cooling degree days 0  
Year to date cooling degree days 12  
Moisture  
Dew Point 41 °F    
Average Humidity 74    
Maximum Humidity 82    
Minimum Humidity 66    
Precipitation  
Precipitation 0.00 in 0.22 in 3.19 in (1981)
Month to date precipitation T 0.87  
Year to date precipitation 8.05 10.06  
Sea Level Pressure  
Sea Level Pressure 30.09 in    
Wind  
Wind Speed 8 mph (NNE)    
Max Wind Speed 14 mph    
Max Gust Speed 18 mph    
Visibility 10 miles    
Events      
T = Trace of Precipitation, MM = Missing Value Source: NWS Daily Summary

Daily Weather History Graph

Daily Weather History Graph

Search for Another Location

Airport or City:

Trip Planner

Search our weather history database for the weather conditions in past years. The results will help you decide how hot, cold, wet, or windy it might be!

Date:

Astronomy

Mar. 04, 2014 Rise Set
Actual Time 7:00 AM EST 6:38 PM EST
Civil Twilight 6:36 AM EST 7:02 PM EST
Nautical Twilight 6:08 AM EST 7:30 PM EST
Astronomical Twilight 5:40 AM EST 7:58 PM EST
Moon 9:03 AM EST (3/4) 10:25 PM EST (3/4)
Length of Visible Light 12h 26m
Length of Day
11h 38m
Waxing Crescent, 14% of the Moon is Illuminated
Mar 4
Waxing Crescent
Mar 8
First Quarter
Mar 16
Full
Mar 23
Last Quarter
Mar 30
New

Hourly Weather History & Observations

Time (EST) Temp. Windchill Dew Point Humidity Pressure Visibility Wind Dir Wind Speed Gust Speed Precip Events Conditions
12:53 AM 48.9 °F - 39.0 °F 69% 30.08 in 10.0 mi North 8.1 mph - N/A   Overcast
1:53 AM 48.0 °F - 37.9 °F 68% 30.08 in 10.0 mi NNW 12.7 mph - N/A   Overcast
2:53 AM 46.9 °F - 37.9 °F 71% 30.07 in 10.0 mi North 11.5 mph 18.4 mph N/A   Overcast
3:53 AM 46.9 °F - 37.9 °F 71% 30.07 in 10.0 mi North 9.2 mph - N/A   Overcast
4:53 AM 46.9 °F - 37.9 °F 71% 30.08 in 10.0 mi NNE 8.1 mph - N/A   Overcast
5:53 AM 46.9 °F - 37.9 °F 71% 30.10 in 10.0 mi NNE 6.9 mph - N/A   Overcast
6:53 AM 46.9 °F - 37.9 °F 71% 30.10 in 10.0 mi North 3.5 mph - N/A   Overcast
7:22 AM 46.4 °F 45.2 °F 37.4 °F 71% 30.09 in 10.0 mi NNE 3.5 mph - N/A   Overcast
7:53 AM 48.0 °F - 39.0 °F 71% 30.09 in 10.0 mi North 4.6 mph - N/A   Overcast
8:53 AM 50.0 °F - 41.0 °F 71% 30.10 in 10.0 mi NNE 3.5 mph - N/A   Overcast
9:53 AM 51.1 °F - 42.1 °F 71% 30.11 in 10.0 mi NNE 5.8 mph - N/A   Overcast
10:53 AM 53.1 °F - 43.0 °F 69% 30.11 in 10.0 mi NE 8.1 mph - N/A   Overcast
11:35 AM 53.6 °F - 44.6 °F 72% 30.12 in 10.0 mi Variable 6.9 mph - N/A   Overcast
11:53 AM 54.0 °F - 44.1 °F 69% 30.11 in 10.0 mi NE 6.9 mph - N/A   Overcast
12:53 PM 55.0 °F - 44.1 °F 67% 30.09 in 10.0 mi NE 6.9 mph - N/A   Overcast
1:31 PM 53.6 °F - 44.6 °F 72% 30.08 in 10.0 mi ENE 4.6 mph - N/A   Overcast
1:53 PM 53.1 °F - 45.0 °F 74% 30.08 in 10.0 mi NNE 6.9 mph - N/A   Overcast
2:53 PM 52.0 °F - 45.0 °F 77% 30.09 in 10.0 mi North 4.6 mph - N/A   Overcast
3:53 PM 52.0 °F - 44.1 °F 74% 30.09 in 10.0 mi NNE 6.9 mph - N/A   Overcast
4:53 PM 52.0 °F - 44.1 °F 74% 30.09 in 10.0 mi North 6.9 mph - N/A   Overcast
5:53 PM 52.0 °F - 44.1 °F 74% 30.09 in 10.0 mi NE 8.1 mph - N/A   Overcast
6:53 PM 50.0 °F - 43.0 °F 77% 30.10 in 10.0 mi NNE 10.4 mph - N/A   Overcast
7:53 PM 48.9 °F - 42.1 °F 77% 30.08 in 10.0 mi NE 11.5 mph - N/A   Overcast
8:20 PM 48.2 °F - 42.8 °F 82% 30.10 in 10.0 mi NNE 6.9 mph - N/A   Overcast
8:53 PM 48.0 °F - 41.0 °F 77% 30.10 in 10.0 mi ENE 6.9 mph - N/A   Overcast
9:53 PM 48.0 °F - 41.0 °F 77% 30.10 in 10.0 mi East 8.1 mph - N/A   Overcast
10:53 PM 46.9 °F - 41.0 °F 80% 30.09 in 10.0 mi ENE 9.2 mph - N/A   Overcast
11:53 PM 46.9 °F - 41.0 °F 80% 30.08 in 10.0 mi ENE 8.1 mph - N/A   Overcast